Location: Newark
(41.0400°S, 62.7845°W)
Time: 15:52:48
(UTC+00:00)

Vanguard 2 Rocket - Pass Details

Date: 06 December 2021
Orbit: 553 x 3325 km, 32.9° (Epoch: 23 January)

Event Time Altitude Azimuth Distance (km) Brightness Sun altitude
Rises 12:49:54 0° 267° (W) 6,673 10.9 45.8°
Reaches altitude 10° 12:55:07 10° 271° (W) 5,273 10.5 46.8°
Maximum altitude 13:08:11 46° 337° (NNW) 2,196 9.3 49.2°
Drops below altitude 10° 13:15:47 10° 47° (NE) 3,123 10.4 50.6°
Sets 13:18:06 0° 54° (NE) 3,813 10.7 51.0°
